STARLINK-35869

Last updated on Sun Dec 07 2025 00:02:05 GMT+0000 (Coordinated Universal Time)

1 66353U 25254F 25340.58335648 -.00126959 00000+0 -23080-2 0 9995 2 66353 53.1602 306.0195 0001495 89.8045 330.0879 15.49354862 5933
UTC large
Height (km)
Speed (km/s)
/
Latitude / Longitude
Inclination (degrees)
Orbital Period (minutes)
Azimuth
Elevation
Range (km)
Doppler Factor

Next 0 passes for location: London (51.5072 / 0.1276)

Sorry there are no passes over London.